COSMOS 2251 DEB, 34908

Orbit data source: Space-Track

COSMOS 2251 DEB, 34908 is space debris in LEO originally from a launch on Wed, 16 Jun 1993 UTC launched from the Plesetsk Missile And Space Complex (PKMTR). The debris from Iridium 33, an American commercial communications satellite, has been tracked extensively since its accidental collision with the defunct Russian satellite Cosmos 2251 in 2009. This event, occurring at high speed in low Earth orbit (LEO), generated thousands of pieces of space debris, significantly increasing the risk of further collisions. The Iridium 33 debris cloud has impacted space traffic management and orbital debris mitigation strategies, making it a subject of ongoing study in space situational awareness.

Loading next visibility...
Identifier
34908, 1993-036ADD
Orbit
LEO
Country
Flag of CISCIS
Related business
Manufacturer
Unknown
Mission
Spacecraft
Bus & Motor
Unknown
Mass
Unknown
Launch date (UTC)
1993-06-16 (33 years ago)
Launch vehicle
Unknown
Launch site
Plesetsk Missile And Space Complex (PKMTR)
Object type
Payload
Rocket body
Debris
Shape & HBR
Unknown shape, 0.1 m
Radar Cross Section
Medium (>0.1 m² and <1 m²)

Expand to show TLE details & history
Last TLE update: 19 hours ago

TLE from 19 hours ago
0 COSMOS 2251 DEB
1 34908U 93036ADD 26174.88287464  .00000954  00000-0  32066-3 0  9990
2 34908  74.0576  28.5273 0040365   0.1761  15.4062 14.38059712900552
Epoch: 2026-06-23T21:11Z
TLE epoch observation values (Epoch: 2026-06-23T21:11:20.368Z)
Latitude
15.0687°
Longitude
163.03162°
Altitude
739.033 km
Speed
7.501 km/s
True Right ascension
02h 11m 39s
True Declination
14° 58' 57"
Sunlit
Object was in daylight at epoch
Visualization orbit readout
Latitude
Unknown
Longitude
Unknown
Altitude
Unknown
Speed
Unknown
Apparent Right ascension
Unknown
Apparent Declination
Unknown
Sunlit
N/A
Visualization observer readout
Local Sidereal Time
03:13:31
Azimuth
Unknown
Elevation
Unknown
Doppler factor
Unknown
Orbital elements
Apogee altitude
791.36 km
Perigee altitude
733.713 km
Semi-major axis
7,140.673 km
Eccentricity
0.00404
Inclination
74.0576°
RAAN
28.5273°
Arg. of periapsis
0.1761°
True anomaly
15.52968°
Mean anomaly
15.4062°
Eccentric anomaly
15.46788°
Mean motion
3.59695 °/min
Orbital period
100.08 mins
BSTAR
0.00032066
Loading maneuver chart data...
Computing Atmospheric mass density...

Documentation

Showing up to 5 results
|